01:54
Airports
History
Links
Donate
Help keep this website running!
PayPal
Bitcoin
This page is community maintained. The information is intended for PC simulator navigation or reference.
Always use approved charts for navigation.
SBST
BASE AEREA DE SANTOS
BASE AEREA DE SANTOS (SBST)
Guarujá, São Paulo, Brazil (11420)
(C)
Lat/Lng:23° 55' 30.73" S / 46° 17' 15" W
-23.925204 / -46.287499
Elevation:10'ft / 3mMSL
ID / ICAO:SBST
Runways:1
Longest:(17-35) 1,400.1m / 4,594ft Asphalt
Controlled:Yes
Distance To
Airport ID:
Airport Radio Frequencies
Tower: 118.3, 122.8
Approach: 119.8, 120.05, 129.5
METARUpdated 08-16-17 23:00 GMT
Altimeter: 30.09
Visibility: 1.9 statute miles
Wind: 3 knots (020°)
Temp: 19°c 66°f
Humidity: 82.7%

METAR: SBST 162300Z 02003KT 3000 -DZ BR BKN003 OVC010 19/16 Q1019

(Powered by phpweather)
Runway 17 / 35
Dimensions:1400.1 x 45.1m 4594' x 148'ft
Surface:Asphalt
Edge Lights:Low intensity
Runway 17 [A]Runway 35 [B]
Heading:148°TH 328°TH
Lat:
Lng:
23° 55' 11.44"S
46° 17' 27.79"W
23° 55' 50.03"S
46° 17' 2.2"W
User Notes and Comments
Google Map
Nearby Airports
4 Fazenda Irohy 28.4 NM
SDIH NNE 29°
(C) Sao Paulo Congonhas 31.1 NM
SBSP (WX) NW 311°
4 Fazenda Caicara 35.5 NM
SDCR WSW 253°
(U) Itanhaem 35.5 NM
SDIM WSW 242°
(C) Sao Paulo - Guarulhos 35.9 NM
SBGR (WX) NNW 341°
(C) MARTE 36.3 NM
SBMT (WX) NW 322°
4 Nascimento I 48.8 NM
SDNI WNW 295°
VFR Chart
Flight Planning at SkyVector.com